星链-30758 (STARLINK-30758 )

导读

STARLINK-30758是美国SpaceX公司于2023年10月22日发射的星链卫星,属于星链低轨互联网星座的组成部分,运行在近地轨道上。它依托相控阵天线、霍尔推进等技术,服务全球高速互联网接入,可覆盖偏远地区、海洋等传统网络盲区,助力星链全球宽带网络的部署,为用户提供低延迟的卫星互联网服务。

基本信息
目录编号:
58133
目录名称:
STARLINK-30758
国际标识:
2023-162R
轨道中心:
EARTH
卫星名称:
星链-30758
卫星全名:
星链-30758 (STARLINK-30758 )
卫星状态:
在轨 (已飞行1048 天)
发射日期:
2023-10-22 UTC
国别 :
美国 (US)
星等 :
--
轨道信息
数据来源 国际轨道数据 AOE轨道数据
星历时间 2026-09-04T06:07:09+0800
14小时前
查看轨道信息
2026-09-03T23:00:00+0800
21小时前
查看轨道信息
半长轴 6861.19km 6861.165km
偏心率 0.0001491 0.000067
轨道倾角 43.002° 43.001°
近地点辐角 259.012° 110.884°
升交点赤经 202.673° 204.350°
平近点角 101.056° 56.002°
近地点 482.029km 482.568km
远地点 484.077km 483.488km
周期 94.267分钟 94.266分钟
每日圈数 15.275789 15.275872
详细信息
固有亮度:
5
最大亮度:
0.3
卫星平台:
Starlink v2.0 mini
覆盖范围:
全球
运营商:
太空探索技术公司
运营商所在国:
美国
制造商(研发单位):
太空探索技术公司
制造商所在国:
美国
使用方式:
暂无
卫星简介
星链(Starlink)计划是由太空探索技术公司(SpaceX)提出的一个巨型低轨卫星互联网星座项目,计划在2019年至2024年间在太空搭建由约1.2万颗卫星组成的“星链”网络,其中1584颗将部署在地球上空550千米处的近地轨道,并从2020年开始工作。该卫星仍在工作。
2D轨道图
3D轨道图
轨道高度分析图
轨道倾角分析图
轨道综合分析图
查看轨道综合分析图
交会数据列表
事件ID 空间交会对象 最接近时刻(TCA) 交会距离 交会风险概率(CRP) 交会风险指数(CRI) 操作
CDM_260906-001405-813306-395021
2026-09-06T
00:14:07+0000
0.808 km
远距离
2.156552E-5 中风险 0.62
CDM_260903-193204-394605-813323
2026-09-03T
19:32:27+0000
1.822 km
极远距离
3.517674E-6 低风险 0.46
CDM_260902-164005-321605-813321
2026-09-02T
16:40:35+0000
2.078 km
极远距离
2.20368E-6 低风险 0.42
CDM_260902-190105-321605-813321
2026-09-02T
19:01:57+0000
2.329 km
极远距离
1.716186E-6 低风险 0.4
CDM_260906-210105-363905-813321
2026-09-06T
21:01:12+0000
2.580 km
极远距离
1.146297E-6 低风险 0.36